"TOA5","AWS1","CR1000","7964","CR1000.Std.14","CPU:AWS1_114.CR1","64363","TBL110"
"TIMESTAMP","RECORD","Wind_spd_WVc(1)","Wind_spd_WVc(2)","Air_Temp_Avg","Humidity_Avg","SW_upper_Wm2_Avg","Rain_Tot","Press_Avg","Issui_Tot","Depth_cm","SR50A_Raw","Quality","Ground_Temp_Avg(1)","Ground_Temp_Avg(2)","SW_lower_Wm2_Avg","Albedo_Avg","SWC_per(1)","SWC_per(2)","Period(1)","Period(2)"
"TS","RN","","","","","","","","","","","","","","","","","","",""
"","","WVc","WVc","Avg","Avg","Avg","Tot","Avg","Tot","Smp","Smp","Smp","Avg","Avg","Avg","Avg","Smp","Smp","Smp","Smp"
"2013-11-05 00:00:00",102733,0.198,46.14,2.487,88.7,0,0,868.5098,0,-0.943,3.176,232,8.15,9.3,1.823462,0,50.88,59.44,33.52,35.55
"2013-11-05 00:10:00",102734,0.021,103.7,2.096,91.4,0,0,868.6051,0,-0.49,3.175,279,8.08,9.3,1.178288,0,50.88,59.44,33.52,35.55
"2013-11-05 00:20:00",102735,0.093,190.4,1.811,94,0.02359014,0,868.7626,0,0.666,3.161,376,8.06,9.32,0.8491633,0.482,50.88,59.44,33.52,35.55
"2013-11-05 00:30:00",102736,0.35,333.8,2.456,94.8,0.01965842,0,868.7626,0,0.67,3.157,416,7.969,9.29,1.580795,0.402,50.88,59.44,33.52,35.55
"2013-11-05 00:40:00",102737,0.275,207.8,2.636,93,0,0,868.7626,0,0.567,3.162,402,7.987,9.26,1.504969,0,50.88,59.44,33.52,35.55
"2013-11-05 00:50:00",102738,0.42,174.7,1.965,94.6,0,0,868.7626,0,-4.301,3.211,214,7.895,9.29,1.474638,0,50.88,59.38,33.52,35.54
"2013-11-05 01:00:00",102739,0.501,215.4,2.169,96.3,0,0,868.8362,0,-5.281,3.22,202,7.904,9.29,2.024308,0,50.88,59.44,33.52,35.55
"2013-11-05 01:10:00",102740,0.383,176.4,2.124,96.2,0,0,868.9269,0,-4.954,3.218,202,7.867,9.29,1.827184,0,50.88,59.38,33.52,35.54
"2013-11-05 01:20:00",102741,0.158,286.3,2.165,96.1,0.01965815,0,869.0154,0,-4.404,3.21,213,7.819,9.29,1.721041,0.562,50.88,59.38,33.52,35.54
"2013-11-05 01:30:00",102742,0.245,220.8,2.568,93.5,0.1690601,0,869.1102,0,-4.804,3.215,204,7.817,9.29,1.042481,3.375,50.88,59.38,33.52,35.54
"2013-11-05 01:40:00",102743,0.13,209.5,2.326,94.1,0,0,869.2682,0,-0.838,3.175,216,7.79,9.29,0.6065342,0,50.88,59.38,33.52,35.54
"2013-11-05 01:50:00",102744,0.494,275.7,2.54,94.7,0.06683769,0,869.4261,0,-1.239,3.177,211,7.732,9.29,0.8984287,1.205,50.88,59.38,33.52,35.54
"2013-11-05 02:00:00",102745,0.53,193.7,2.564,94.3,0,0,869.5211,0,-0.235,3.168,212,7.731,9.29,0.7771219,0,50.88,59.38,33.52,35.54
"2013-11-05 02:10:00",102746,0.596,191.7,2.432,94.9,0,0,869.5231,0,0.192,3.164,205,7.672,9.29,0.8718929,0,50.88,59.38,33.52,35.54
"2013-11-05 02:20:00",102747,0.431,212,2.425,95.3,0,0,869.5211,0,0.367,3.163,251,7.6,9.26,0.8112395,0,50.88,59.32,33.52,35.52
"2013-11-05 02:30:00",102748,0.56,222.1,2.399,95.4,0,0,869.5294,0,0.192,3.164,226,7.641,9.22,0.8605204,0,50.83,59.32,33.5,35.52
"2013-11-05 02:40:00",102749,1.038,257.5,2.401,95.5,0,0,869.5421,0,-0.26,3.169,219,7.643,9.21,0.8529387,0,50.83,59.38,33.5,35.54
"2013-11-05 02:50:00",102750,0.736,285.5,2.439,93.7,0,0,869.5211,0,-39.51,3.559,202,7.571,9.2,1.304049,0,50.88,59.32,33.52,35.52
"2013-11-05 03:00:00",102751,0.128,296.8,2.438,93,0,0,869.5211,0,0.569,3.16,314,7.558,9.2,1.76274,0,50.88,59.32,33.52,35.52
"2013-11-05 03:10:00",102752,0.022,163.3,2.203,94.6,0,0,869.5442,0,0.416,3.164,275,7.558,9.2,1.815812,0,50.88,59.32,33.52,35.52
"2013-11-05 03:20:00",102753,0.018,178.6,1.931,95.6,0,0,869.5231,0,0.667,3.162,283,7.558,9.2,2.319993,0,50.88,59.32,33.52,35.52
"2013-11-05 03:30:00",102754,0.3,186.4,2.312,93.4,0,0,869.5294,0,-0.285,3.169,246,7.555,9.21,2.21764,0,50.88,59.32,33.52,35.52
"2013-11-05 03:40:00",102755,0.081,25.51,2.128,92.9,0,0,869.7338,0,0.418,3.163,253,7.511,9.24,1.561826,0,50.83,59.32,33.5,35.52
"2013-11-05 03:50:00",102756,0.421,15.73,2.342,92.8,0,0,869.8561,0,0.066,3.166,229,7.487,9.17,1.398819,0,50.88,59.32,33.52,35.52
"2013-11-05 04:00:00",102757,0.368,28,2.491,93.6,0.1179489,0,870.0267,0,-0.058,3.165,229,7.471,9.12,1.159997,2.41,50.88,59.32,33.52,35.52
"2013-11-05 04:10:00",102758,0.53,257.7,2.635,92,0,0,870.0225,0,-0.184,3.167,234,7.471,9.12,1.903001,0,50.88,59.32,33.52,35.52
"2013-11-05 04:20:00",102759,0.265,77.91,2.176,93.6,0,0,870.0267,0,0.266,3.166,236,7.463,9.12,2.047053,0,50.88,59.32,33.52,35.52
"2013-11-05 04:30:00",102760,0.252,253.5,2.094,95.3,0,0.5,870.0309,0,0.468,3.162,232,7.386,9.12,1.993981,0,50.88,59.32,33.52,35.52
"2013-11-05 04:40:00",102761,0.445,200.9,2.224,94.7,0,0,870.0309,0,0.115,3.166,238,7.384,9.12,1.4481,0,50.88,59.32,33.52,35.52
"2013-11-05 04:50:00",102762,0.181,84.4,2.141,95,0,0,870.1384,0,0.115,3.167,237,7.384,9.12,1.023526,0,50.88,59.32,33.52,35.52
"2013-11-05 05:00:00",102763,0.377,278.6,2.208,95.4,0,0,870.2521,0,0.394,3.161,234,7.38,9.05,1.182742,0,50.88,59.32,33.52,35.52
"2013-11-05 05:10:00",102764,0.405,217.4,2.721,91.5,0,0,870.2921,0,-0.135,3.167,225,7.321,9.04,1.747576,0,50.88,59.26,33.52,35.51
"2013-11-05 05:20:00",102765,0.217,129.3,2.331,93.1,0,0,870.4565,0,0.04,3.167,230,7.298,9,1.921955,0,50.88,59.32,33.52,35.52
"2013-11-05 05:30:00",102766,0.05,176.5,2.118,94.4,0,0,870.5323,0,-0.286,3.171,225,7.298,9,2.536071,0,50.88,59.26,33.52,35.51
"2013-11-05 05:40:00",102767,0.04,247.1,1.791,95,0,0,870.5387,0,0.115,3.168,208,7.277,9.03,2.297248,0,50.88,59.26,33.52,35.51
"2013-11-05 05:50:00",102768,0.161,241.4,2.192,95.3,0.02752141,0,870.5366,0,-0.937,3.175,206,7.2,9.03,2.141824,0.996,50.88,59.26,33.52,35.51
"2013-11-05 06:00:00",102769,0.14,163.8,2.109,94.4,0,0,870.5661,0,-0.287,3.171,217,7.211,9.03,1.281303,0,50.83,59.32,33.5,35.52
"2013-11-05 06:10:00",102770,0.22,79.77,2.117,94.9,0,0,870.7242,0,-0.536,3.173,206,7.211,9.01,1.53529,0,50.83,59.32,33.5,35.52
"2013-11-05 06:20:00",102771,0.22,199,2.098,95.4,0.912138,0,870.7852,0,-0.184,3.168,212,7.216,8.97,1.141042,1.281,50.88,59.32,33.52,35.52
"2013-11-05 06:30:00",102772,0,0,2.441,95.6,2.288208,0,870.9854,0,-0.435,3.17,212,7.237,8.96,1.114506,0.508,50.83,59.32,33.5,35.52
"2013-11-05 06:40:00",102773,0.029,64.17,2.46,95.7,4.674707,0,871.0802,0,-0.334,3.168,212,7.16,8.96,1.163787,0.27,50.83,59.32,33.5,35.52
"2013-11-05 06:50:00",102774,0.033,233.6,2.766,95.5,9.207875,0,871.2782,0,-0.409,3.167,212,7.124,8.95,1.675551,0.185,50.83,59.26,33.5,35.51
"2013-11-05 07:00:00",102775,0.021,198.1,2.811,95.4,11.40566,0,871.3351,0,-0.409,3.168,212,7.124,8.94,1.804439,0.158,50.83,59.32,33.5,35.52
"2013-11-05 07:10:00",102776,0,0,2.803,95.2,11.45284,0,871.4236,0,-0.234,3.166,223,7.124,8.94,1.76274,0.154,50.83,59.26,33.5,35.51
"2013-11-05 07:20:00",102777,0,0,3.015,95.1,15.49062,0,871.5416,0,-0.432,3.166,208,7.124,8.94,2.429928,0.157,50.83,59.32,33.5,35.52
"2013-11-05 07:30:00",102778,0.005,284,3.171,92.8,16.25336,0,871.5732,0,-0.382,3.165,212,7.124,8.94,2.75594,0.17,50.83,59.26,33.5,35.51
"2013-11-05 07:40:00",102779,0.249,207,3.33,89.5,30.94979,0,871.7375,0,-0.229,3.162,220,7.117,8.94,5.007698,0.163,50.83,59.32,33.5,35.52
"2013-11-05 07:50:00",102780,0.206,293.7,3.394,91.4,45.33168,0,871.8071,0,-0.331,3.164,212,7.094,8.94,6.550569,0.145,50.83,59.26,33.5,35.51
"2013-11-05 08:00:00",102781,0.054,355.7,3.441,94,66.12214,0,872.0305,0,-0.153,3.161,214,7.076,8.94,8.696183,0.132,50.83,59.26,33.5,35.51
"2013-11-05 08:10:00",102782,0.212,271,3.64,91.9,102.8396,0,872.0494,0,-0.074,3.158,205,7.094,8.94,15.03826,0.146,50.83,59.26,33.5,35.51
"2013-11-05 08:20:00",102783,0.058,272.9,4.034,87.1,125.875,0,872.0494,0,0.029,3.155,204,7.119,8.94,18.01406,0.142,50.88,59.26,33.52,35.51
"2013-11-05 08:30:00",102784,0.05,1.547,4.408,87.1,139.0919,0,872.1426,0,0.085,3.153,203,7.122,8.94,20.50066,0.145,50.83,59.26,33.5,35.51
"2013-11-05 08:40:00",102785,0.24,156.1,4.744,86.6,141.3636,0,872.2822,0,-0.113,3.155,203,7.113,8.93,18.54401,0.128,50.83,59.26,33.5,35.51
"2013-11-05 08:50:00",102786,0.23,130.7,4.568,86.4,166.5686,0,872.3153,0,0.07,3.153,204,7.092,8.92,21.09089,0.126,50.83,59.26,33.5,35.51
"2013-11-05 09:00:00",102787,0.354,137.1,4.672,86.6,169.6659,0,872.3253,0,-0.143,3.154,210,7.054,8.89,22.77982,0.134,50.83,59.26,33.5,35.51
"2013-11-05 09:10:00",102788,0.525,152.9,4.59,81.7,172.1538,0,872.4074,0,-0.186,3.156,213,7.057,8.85,24.01048,0.141,50.83,59.26,33.5,35.51
"2013-11-05 09:20:00",102789,0.727,153,4.646,81.3,192.9758,0,872.4623,0,-1.812,3.17,234,7.084,8.8,29.04901,0.15,50.88,59.26,33.52,35.51
"2013-11-05 09:30:00",102790,0.772,148.5,5.061,76.1,161.4019,0,872.4617,0,-1.328,3.165,227,7.084,8.78,29.20304,0.184,50.83,59.26,33.5,35.51
"2013-11-05 09:40:00",102791,0.778,156,5.655,75.54,129.4923,0,872.4553,0,-1.418,3.161,281,7.038,8.77,28.49005,0.22,50.83,59.26,33.5,35.51
"2013-11-05 09:50:00",102792,0.574,169.8,5.81,71.9,201.632,0,872.4617,0,-1.719,3.163,294,7.128,8.77,40.47243,0.204,50.83,59.26,33.5,35.51
"2013-11-05 10:00:00",102793,0.596,127.5,6.459,72.49,218.1743,0,872.4617,0,-0.646,3.148,248,7.138,8.75,42.22692,0.194,50.77,59.26,33.49,35.51
"2013-11-05 10:10:00",102794,0.857,165.3,6.692,69.26,137.053,0,872.4617,0,-1.384,3.157,240,7.199,8.73,32.84019,0.241,50.77,59.26,33.49,35.51
"2013-11-05 10:20:00",102795,0.902,181.6,6.071,68.04,109.376,0,872.4617,0,-5.257,3.198,219,7.208,8.73,23.12759,0.207,50.77,59.26,33.49,35.51
"2013-11-05 10:30:00",102796,0.531,270.8,5.878,71.83,133.9285,0,872.4617,0,-5.156,3.198,218,7.236,8.72,30.5172,0.223,50.77,59.2,33.49,35.5
"2013-11-05 10:40:00",102797,0.638,357.1,6.011,76.11,256.7499,0,872.4617,0,-3.005,3.174,230,7.333,8.7,48.41143,0.188,50.77,59.2,33.49,35.5
"2013-11-05 10:50:00",102798,0.616,357.4,6.218,79.03,192.2107,0,872.4617,0,-41.13,3.551,215,7.346,8.7,28.62243,0.143,50.77,59.2,33.49,35.5
"2013-11-05 11:00:00",102799,0.26,282.1,5.965,80,152.5698,0,872.4617,0,-1.114,3.158,437,7.396,8.7,19.21678,0.126,50.83,59.2,33.5,35.5
"2013-11-05 11:10:00",102800,0.201,314,5.904,80.3,226.6279,0,872.4617,0,-0.93,3.154,241,7.411,8.7,28.80428,0.127,50.83,59.2,33.5,35.5
"2013-11-05 11:20:00",102801,0.318,265.5,6.064,81.3,253.0482,0,872.4343,0,-1.095,3.154,228,7.466,8.68,42.89557,0.164,50.83,59.2,33.5,35.5
"2013-11-05 11:30:00",102802,0.243,327.9,6.627,74.19,354.7944,0,872.2063,0,-1.844,3.16,304,7.502,8.67,52.85951,0.147,50.77,59.2,33.49,35.5
"2013-11-05 11:40:00",102803,0.685,22.66,6.552,74.66,211.9713,0,872.1697,0,-0.687,3.149,239,7.525,8.65,25.90089,0.122,50.77,59.2,33.49,35.5
"2013-11-05 11:50:00",102804,0.405,56.73,6.916,75.19,246.0848,0,872.0803,0,-1.128,3.151,233,7.57,8.63,32.00938,0.129,50.77,59.2,33.49,35.5
"2013-11-05 12:00:00",102805,0.277,290.8,7.031,72.58,594.065,0,871.9152,0,-1.069,3.149,275,7.57,8.61,77.1049,0.129,50.66,59.2,33.46,35.5
"2013-11-05 12:10:00",102806,0.398,296.2,7.345,71.12,357.7667,0,871.8684,0,-0.993,3.149,265,7.61,8.61,42.60703,0.119,50.72,59.2,33.47,35.5
"2013-11-05 12:20:00",102807,0.281,309.8,7.178,72.14,290.806,0,871.8635,0,-0.916,3.148,221,7.697,8.62,35.39756,0.121,50.72,59.14,33.47,35.48
"2013-11-05 12:30:00",102808,0.478,310.4,7.493,70.69,587.2365,0,871.8629,0,-40.92,3.541,252,7.747,8.63,77.24252,0.13,50.66,59.14,33.46,35.48
"2013-11-05 12:40:00",102809,0.84,335.7,7.659,69.01,667.3657,0,871.7532,0,0.11,3.135,276,7.765,8.63,84.99306,0.127,50.72,59.14,33.47,35.48
"2013-11-05 12:50:00",102810,0.26,341.5,8.31,68.14,671.3927,0,871.616,0,-1.689,3.149,240,7.841,8.59,81.79153,0.122,50.72,59.14,33.47,35.48
"2013-11-05 13:00:00",102811,0.302,287.5,8.33,68.1,648.7076,0,871.569,0,-0.088,3.132,306,7.864,8.51,71.41069,0.11,50.72,59.14,33.47,35.48
"2013-11-05 13:10:00",102812,0.419,339,8.65,68.02,635.6758,0,871.5335,0,-0.612,3.137,392,7.832,8.48,63.20837,0.099,50.66,59.14,33.46,35.48
"2013-11-05 13:20:00",102813,0.278,279.9,8.61,67.1,608.0651,0,871.5204,0,-0.69,3.139,248,7.899,8.51,53.77597,0.088,50.66,59.14,33.46,35.48
"2013-11-05 13:30:00",102814,0.361,294,8.46,67.62,586.8626,0,871.5177,0,-0.082,3.134,288,7.927,8.54,41.70984,0.071,50.66,59.08,33.46,35.47
"2013-11-05 13:40:00",102815,0.523,304.5,7.959,68.12,493.583,0,871.5444,0,-0.67,3.141,220,8.01,8.52,33.08672,0.067,50.66,59.14,33.46,35.48
